Torna al catalogo

COSMOS 1331

AttivoMilitareLEO
NORAD 13027·PAYLOAD·🇷🇺 Russia

Lanciato Jan 7, 1982 da Plesetsk Cosmodrome

Loading…

Prossimi Passaggi (prossime 24 ore)

TLE

AggiornatoSource: Space-Track

Epoca: Sep 14, 2026, 05:59 UTC

1 13027U 82001A   26257.24942086  .00000097  00000-0  40759-4 0  9996
2 13027  74.0499 352.0393 0024774 275.3144  84.5183 14.37750289340375

Traccia COSMOS 1331 in tempo reale con AllMySat

Download on the App Store